星链-3995 (STARLINK-3995 )

导读 | 星芒AI

STARLINK-3995 是 SpaceX Starlink 项目中的一颗低轨通信卫星,属于第 11 批组网卫星(Batch 11),于 2022 年 9 月 30 日通过猎鹰 9 号火箭发射升空。该卫星运行在约 550 公里的轨道高度,旨在为全球提供高速互联网服务。Starlink 卫星采用先进推进系统和激光通信技术,以提升网络效率和减少延迟。STARLINK-3995 的部署有助于扩大 Starlink 在全球范围内的覆盖能力,特别是在偏远和网络基础设施薄弱的地区。

基本信息
目录编号:
52632
目录名称:
STARLINK-3995
国际标识:
2022-052AL
轨道中心:
EARTH
卫星名称:
星链-3995
卫星全名:
星链-3995 (STARLINK-3995 )
卫星状态:
在轨 (已飞行1271 天)
发射日期:
2022-05-14 UTC
国别 :
美国 (US)
星等 :
--
轨道信息
数据来源 国际轨道数据 AOE轨道数据
星历时间 2025-11-05T04:33:43+0800
5小时前
查看轨道信息
2025-10-31T00:00:00+0800
5天前
查看轨道信息
半长轴 6917.867km 6917.889km
偏心率 0.0001494 0.00014
轨道倾角 53.215° 53.215°
近地点辐角 87.957° 88.350°
升交点赤经 109.518° 132.819°
平近点角 272.160° 144.821°
近地点 538.698km 538.785km
远地点 540.766km 540.723km
周期 95.437分钟 95.438分钟
每日圈数 15.088444 15.088375
详细信息
固有亮度:
5
最大亮度:
2.5
卫星平台:
Starlink v1.5
覆盖范围:
全球
运营商:
太空探索技术公司
运营商所在国:
美国
制造商(研发单位):
太空探索技术公司
制造商所在国:
美国
使用方式:
暂无
卫星简介
星链(Starlink)计划是由太空探索技术公司(SpaceX)提出的一个巨型低轨卫星互联网星座项目,计划在2019年至2024年间在太空搭建由约1.2万颗卫星组成的“星链”网络,其中1584颗将部署在地球上空550千米处的近地轨道,并从2020年开始工作。该卫星仍在工作。
2D轨道图
3D轨道图
轨道高度分析图
轨道倾角分析图
轨道综合分析图
查看轨道综合分析图